Regional Weather Roundup
Issued by NWS Charleston, SC

Current Version | Previous Version | Text Only | Print | Product List | Glossary Off
Versions: 1 2 3 4 5 6 7 8 9 10 11 12 13 14 15 16 17 18 19 20 21 22 23 24 25 26 27 28 29 30 31 32 33 34 35 36 37 38 39 40 41 42 43 44 45 46 47 48 49 50
000 ASUS42 KCHS 280127 RWRCHS REGIONAL WEATHER ROUNDUP NATIONAL WEATHER SERVICE CHARLESTON SC 900 PM EDT WED MAY 27 2015 NOTE: "FAIR" INDICATES FEW OR NO CLOUDS BELOW 12,000 FEET WITH NO SIGNIFICANT WEATHER AND/OR OBSTRUCTIONS TO VISIBILITY. NOT ALL STATIONS ARE QUALITY CONTROLLED BY THE NATIONAL WEATHER SERVICE. USE DATA WITH CAUTION...ESPECIALLY DEWPOINT OBSERVATIONS. SCZ027-030-031-034>040-042>050-280200- ...SOUTHEAST SOUTH CAROLINA... CITY SKY/WX TMP DP RH WIND PRES REMARKS N CHARLESTON PTCLDY 76 65 68 S9 30.20F WATERFRONT PAR N/A 77 68 73 SE7 30.18S MOUNT PLEASANT FAIR 73 68 83 SE3 30.21S JOHNS ISLAND CLEAR 73 68 83 CALM 30.21S PINOPOLIS N/A 81 68 65 CALM 30.11S MONCKS CORNER FAIR 75 66 73 S3 30.20S SUMMERVILLE FAIR 73 68 83 SE5 30.21S BEAUFORT MCAS PTCLDY 78 69 73 SE3 30.19F BEAUFORT ARPT FAIR 73 68 83 CALM 30.19S HILTON HEAD IS PTCLDY 73 68 83 CALM 30.20F WALTERBORO MOCLDY 72 64 78 S3 30.21R ALLENDALE FAIR 75 66 73 SE5 30.19R ...SOUTHERN MIDLANDS AND PEE DEE... CITY SKY/WX TMP DP RH WIND PRES REMARKS GEORGETOWN NOT AVBL KINGSTREE NOT AVBL ORANGEBURG MOCLDY 74 67 78 CALM 30.20R BARNWELL FAIR 79 66 65 SE6 30.20R AIKEN FAIR 73 64 73 SE6 30.23R MANNING FAIR 70 68 94 SE3 30.20S COLUMBIA PTCLDY 75 68 78 E7 30.18R SUMTER MOCLDY 73 69 89 SE3 30.19R FLORENCE MOCLDY 74 70 87 S6 30.20S MYRTLE BEACH PTCLDY 77 64 65 S7 30.24R N MYRTLE BEACH MOCLDY 76 68 76 S8 30.22S $$ GAZ063-065-086>088-099>101-113>116-118-119-134>141-150-280200- ...SOUTHEAST GEORGIA... CITY SKY/WX TMP DP RH WIND PRES REMARKS SAVANNAH ARPT MOCLDY 77 64 64 SE7 30.19S HUNTER AAF MOCLDY 76 67 74 SE5 30.17S FORT STEWART MOCLDY 75 65 71 SE5 30.17S STATESBORO MOCLDY 75 69 80 SE3 30.20R SYLVANIA MOCLDY 76 69 77 CALM 30.20R CLAXTON FAIR 73 66 78 CALM 30.20R ...CSRA...CENTRAL AND FAR SOUTHEAST GEORGIA... CITY SKY/WX TMP DP RH WIND PRES REMARKS THOMSON CLOUDY 79 73 82 SE3 30.23R AUGUSTA-BUSH PTCLDY 78 70 76 SE8 30.16R AUGUSTA-DANIEL CLOUDY 80 69 69 SE9 30.19R SWAINSBORO FAIR 77 77 100 CALM 30.19R VIDALIA LGT RAIN 72 70 94 CALM 30.19R EASTMAN FAIR 77 72 83 SE6 30.20R HAZLEHURST FAIR 77 69 77 SE5 30.16F ALMA MOCLDY 77 62 59 E7 30.17R WAYCROSS CLOUDY 78 66 68 SE7 30.18R JESUP FAIR 77 68 73 CALM 30.19R BAXLEY FAIR 79 63 57 SE5 30.18R BRUNSWICK N/A 77 64 65 E3 30.20R SAINT SIMONS NOT AVBL $$ SCZ027-028-034-036>038-045-046-048>050-GAZ119-141-280200- ...LAKE AND SUPPLEMENTAL COASTAL OBSERVATIONS... STATION/POSITION TIME TEMP WIND PRES WAVE SWELL AIR SEA DIR/SP/G HT/PER HT/PER/DIR (UTC) (F) (DEG/KT/KT) (MB) (FT/S) (FT/S/D) UPR LAKE MARION NOT AVBL WINYAH BAY 2345 77 150/ 8 1022.0 LAKE MURRAY 0000 79 140/ 8/ 11 1021.0R ACE BASIN NERRS NOT AVBL FORT PULASKI 0100 76 80 120/ 4/ 5 1022.8F SAPELO ISLAND 0100 76 120/ 4 1022.0S $$ ANZ835-935-AMZ111-154-330-350-352-354-370-450-454-472-280200- ...C-MAN AND BUOY OBSERVATIONS... STATION/POSITION TIME TEMP WIND PRES WAVE SWELL AIR SEA DIR/SP/G HT/PER HT/PER/DIR (UTC) (F) (DEG/KT/KT) (MB) (FT/S) (FT/S/D) BUOY 41004 0050 77 78 130/ 10/ 12 1022.5S 3/ 7 2/ 7 BUOY 41008 0050 78 79 130/ 10/ 10 1022.4F 3/ 7 2/100/ 7 FOLLY BEACH CMAN 0100 77 140/ 8/ 9 1023.0F CAPERS NEARSHORE 0008 77 160/ 8/ 12 1023.2R FRIPP NEARSHORE 0000 78 140/ 6/ 6 1022.4R STATION/POSITION TIME TEMP WIND PRES WAVE SWELL AIR SEA DIR/SP/G HT/PER HT/PER/DIR (UTC) (F) (DEG/KT/KT) (MB) (FT/S) (FT/S/D) 5E ST. MARYS GA 0021 80 N/A 2/ 7 FRYING PAN BUOY 0050 76 76 150/ 12/ 14 1024.0F 3/ 6 3/130/ 6 BUOY 41025 0050 74 77 180/ 16/ 17 1024.1R 3/ 7 2/130/ 7 CAPE LOOKOUT NC 0100 74 180/ 13/ 14 1023.8R BUOY 41002 0050 73 74 110/ 10/ 12 1023.8F 5/ 8 3/120/ 8 BUOY 41010 0020 77 80 80/ 14/ 16 1021.6R ST AUGUSTINE FL 0100 78 81 100/ 12/ 14 1022.4F $$

USA.gov is the U.S. government's official web portal to all federal, state and local government web resources and services.